Hourly Data Report for September 15, 2017

All times are specified in Local Standard Time (LST). Add 1 hour to adjust for Daylight Saving Time where and when it is observed.

CORAL HARBOUR A
NUNAVUT

64°11'36.000" N
83°21'34.000" W
62.20 m
2301002
71915
YZS

Download Data

Hourly Data (September 2017)
Hourly Data Report for September 15, 2017
Temp Definition
°C
Dew Point Temp Definition
°C
Rel Hum Definition
%
Wind Dir Definition
10's deg

Wind Spd Definition
km/h
Visibility Definition
km
Stn Press Definition
kPa
Hmdx Definition


Wind Chill Definition


Weather Definition


TIME
00:00 Legend Double Dagger -2.9 -4.3 90 34 10 24.1 100.59   -7 LegendNANA
01:00 Legend Double Dagger -2.1 -4.2 86 36 17 24.1 100.59   -7 Clear
02:00 Legend Double Dagger -2.5 -4.6 85 1 15 24.1 100.59   -7 LegendNANA
03:00 Legend Double Dagger -4.0 -5.2 91 32 11 24.1 100.59   -8 LegendNANA
04:00 Legend Double Dagger -3.8 -5.5 88 35 11 24.1 100.58   -8 Clear
05:00 Legend Double Dagger -3.9 -5.6 88 34 13 24.1 100.59   -9 LegendNANA
06:00 Legend Double Dagger -4.1 -5.7 89 33 11 24.1 100.58   -9 LegendNANA
07:00 Legend Double Dagger -1.6 -4.1 83 36 13 24.1 100.59   -6 Mainly Clear
08:00 Legend Double Dagger -0.4 -2.8 84 34 13 24.1 100.60   -5 LegendNANA
09:00 Legend Double Dagger 1.4 -1.8 80 30 13 24.1 100.60     LegendNANA
10:00 Legend Double Dagger 1.9 -1.3 79 32 5 24.1 100.58     Mostly Cloudy
11:00 Legend Double Dagger 2.1 -0.5 83 18 15 24.1 100.58     LegendNANA
12:00 Legend Double Dagger 4.4 -0.3 71 20 5 24.1 100.56     LegendNANA
13:00 Legend Double Dagger 5.7 -0.2 66 22 7 24.1 100.57     Mostly Cloudy
14:00 Legend Double Dagger 6.8 -0.7 59 10 7 24.1 100.58     LegendNANA
15:00 Legend Double Dagger 6.9 -0.7 58 6 12 24.1 100.56     LegendNANA
16:00 Legend Double Dagger 6.8 -0.4 60 9 16 24.1 100.58     Mostly Cloudy
17:00 Legend Double Dagger 6.3 0.7 68 6 17 24.1 100.62     LegendNANA
18:00 Legend Double Dagger 5.2 0.8 73 4 19 24.1 100.63     LegendNANA
19:00 Legend Double Dagger 2.8 0.3 84 35 5 24.1 100.69     Mainly Clear
20:00 Legend Double Dagger 1.1 -1.1 86 2 6 24.1 100.73     LegendNANA
21:00 Legend Double Dagger 0.3 -1.5 88 4 12 24.1 100.75     LegendNANA
22:00 Legend Double Dagger -0.3 -1.7 90 5 14 24.1 100.75   -5 Mainly Clear
23:00 Legend Double Dagger -0.7 -2.4 88 6 9 24.1 100.74   -4 LegendNANA

Notes on Data Quality.

Legend

  • E = Estimated
  • M = Missing
  • NA = Not Available
  • ‡ = Partner data that is not subject to review by the National Climate Archives
Date modified: